Weather History for KOVS - October, 2012

Change the Weather History Date:

Wednesday, October 3, 2012

  Actual Average (KPDC) Record (KPDC)
Temperature  
Mean Temperature 58 °F -  
Max Temperature 78 °F 69 °F 88 °F (1983)
Min Temperature 39 °F 45 °F 28 °F (1987)
Degree Days  
Heating Degree Days 7    
Growing Degree Days 8 (Base 50)    
Moisture  
Dew Point 45 °F    
Average Humidity 80    
Maximum Humidity 100    
Minimum Humidity 31    
Precipitation  
Precipitation 0.00 in - - ()
Sea Level Pressure  
Sea Level Pressure 29.96 in    
Wind  
Wind Speed 0 mph (West)    
Max Wind Speed 4 mph    
Max Gust Speed -    
Visibility 5 miles    
Events Fog    
Averages and records for this station are not official NWS values.
T = Trace of Precipitation, MM = Missing Value Source: NWS Daily Summary

Daily Weather History Graph

Daily Weather History Graph

Search for Another Location

Airport or City:

Trip Planner

Search our weather history database for the weather conditions in past years. The results will help you decide how hot, cold, wet, or windy it might be!

Date:

Astronomy

Oct. 03, 2012 Rise Set
Actual Time 7:02 AM CDT 6:39 PM CDT
Civil Twilight 6:34 AM CDT 7:07 PM CDT
Nautical Twilight 6:01 AM CDT 7:40 PM CDT
Astronomical Twilight 5:28 AM CDT 8:13 PM CDT
Moon 8:25 PM CDT (10/3) 10:32 AM CDT (10/3)
Length of Visible Light 12h 33m
Length of Day
11h 36m
Waning Gibbous, 88% of the Moon is Illuminated
Oct 3
Waning Gibbous
Oct 8
Last Quarter
Oct 15
New
Oct 21
First Quarter
Oct 29
Full

Hourly Weather History & Observations

Time (CDT) Temp. Dew Point Humidity Pressure Visibility Wind Dir Wind Speed Gust Speed Precip Events Conditions
12:02 AM 44.6 °F 44.6 °F 100% 29.93 in 1.0 mi Calm Calm - N/A   Mist
12:09 AM 44.6 °F 44.6 °F 100% 29.93 in 0.5 mi Calm Calm - N/A Fog Fog
12:53 AM 44.1 °F 44.1 °F 100% 29.94 in 1.0 mi Calm Calm - N/A   Mist
1:00 AM 44.6 °F 44.6 °F 100% 29.94 in 1.2 mi Calm Calm - N/A   Scattered Clouds
1:10 AM 44.6 °F 44.6 °F 100% 29.94 in 2.5 mi Calm Calm - N/A   Scattered Clouds
1:16 AM 44.6 °F 44.6 °F 100% 29.94 in 1.0 mi Calm Calm - N/A   Mist
1:23 AM 42.8 °F 42.8 °F 100% 29.94 in 0.2 mi Calm Calm - N/A Fog Fog
1:53 AM 43.0 °F 43.0 °F 100% 29.95 in 0.2 mi Calm Calm - N/A Fog Fog
2:53 AM 42.1 °F 42.1 °F 100% 29.95 in 0.2 mi Calm Calm - N/A Fog Fog
3:53 AM 41.0 °F 41.0 °F 100% 29.95 in 0.2 mi Calm Calm - N/A Fog Fog
4:53 AM 39.9 °F 39.9 °F 100% 29.97 in 0.2 mi Calm Calm - N/A Fog Fog
5:53 AM 42.1 °F 42.1 °F 100% 29.98 in 0.2 mi Calm Calm - N/A Fog Fog
6:53 AM 42.1 °F 42.1 °F 100% 29.99 in 0.2 mi Calm Calm - N/A Fog Fog
7:53 AM 42.1 °F 42.1 °F 100% 30.00 in 0.2 mi Calm Calm - N/A Fog Fog
8:53 AM 45.0 °F 45.0 °F 100% 30.01 in 0.2 mi Calm Calm - N/A Fog Fog
9:46 AM 48.2 °F 48.2 °F 100% 29.99 in 1.2 mi Calm Calm - N/A   Overcast
9:50 AM 48.2 °F 48.2 °F 100% 29.99 in 3.0 mi Calm Calm - N/A   Mostly Cloudy
9:53 AM 48.9 °F 48.9 °F 100% 30.00 in 3.0 mi Calm Calm - N/A   Mostly Cloudy
10:08 AM 51.8 °F 50.0 °F 94% 29.99 in 9.0 mi Calm Calm - N/A   Partly Cloudy
10:53 AM 62.1 °F 48.9 °F 62% 29.99 in 10.0 mi Calm Calm - N/A   Clear
11:53 AM 71.1 °F 39.0 °F 31% 29.97 in 10.0 mi Calm Calm - N/A   Clear
12:53 PM 73.0 °F 46.9 °F 39% 29.95 in 10.0 mi Calm Calm - N/A   Clear
1:53 PM 75.0 °F 48.0 °F 38% 29.93 in 10.0 mi Variable 3.5 mph - N/A   Clear
2:53 PM 75.9 °F 48.0 °F 37% 29.92 in 10.0 mi Calm Calm - N/A   Clear
3:53 PM 77.0 °F 46.9 °F 34% 29.91 in 10.0 mi Variable 3.5 mph - N/A   Clear
4:53 PM 77.0 °F 46.9 °F 34% 29.91 in 10.0 mi Calm Calm - N/A   Clear
5:53 PM 73.9 °F 45.0 °F 35% 29.92 in 10.0 mi Calm Calm - N/A   Clear
6:53 PM 62.1 °F 48.0 °F 60% 29.93 in 10.0 mi Calm Calm - N/A   Clear
7:53 PM 55.0 °F 48.0 °F 77% 29.95 in 10.0 mi Calm Calm - N/A   Clear
8:53 PM 52.0 °F 46.9 °F 83% 29.97 in 10.0 mi NNW 3.5 mph - N/A   Clear
9:53 PM 62.1 °F 48.9 °F 62% 29.97 in 10.0 mi Variable 3.5 mph - N/A   Clear
10:53 PM 57.9 °F 48.9 °F 72% 29.99 in 10.0 mi SW 3.5 mph - N/A   Clear
11:53 PM 51.1 °F 46.9 °F 86% 29.98 in 10.0 mi Calm Calm - N/A   Clear